Regional Weather Roundup
Issued by NWS

Home | Current Version | Previous Version | Text Only | Print | Product List | Glossary Off
Versions: 1 2 3 4 5 6 7 8 9 10 11 12 13 14 15 16 17 18 19 20 21 22 23 24 25 26 27 28 29 30 31 32 33 34 35 36 37 38 39 40 41 42 43 44 45 46 47 48 49 50

000
ASUS45 KTFX 172104
RWRMT
MONTANA HOURLY WEATHER ROUNDUP
NATIONAL WEATHER SERVICE GREAT FALLS MT
204 PM MST WED DEC 17 2014

NOTE: "FAIR" INDICATES FEW OR NO CLOUDS BELOW 12000 FEET WITH NO
SIGNIFICANT WEATHER AND/OR OBSTRUCTIONS TO VISIBILITY.

* THESE STATIONS ARE NOT UNDER NWS QUALITY CONTROL. THEY DO NOT
   REPORT WEATHER SUCH AS PRECIPITATION OR FOG.

MTZ001>007-043-172200-
WEST OF THE DIVIDE
CITY           SKY/WX    TMP DP  RH WIND       PRES   REMARKS
KALISPELL      CLOUDY    34  25  70 CALM      29.94F
MISSOULA       PTCLDY    36  25  64 CALM      29.94F
BUTTE          CLOUDY    36  27  70 CALM      29.89F
MULLAN PASS    PTSUNNY   28  27  96 S6        29.83F WCI  21
* ANACONDA     SUNNY     37  23  57 S7         N/A   WCI  32
* ESSEX        N/A       31  25  78 NW2        N/A
* LINCOLN      N/A       37  26  64 SE3        N/A
* LOOKOUT PASS N/A       33  26  75 S2         N/A
* POLSON       N/A       32  28  85 S2         N/A
* RONAN APT    PTCLDY    34  28  79 N/A        N/A
* SEELEY LAKE  N/A       36  25  64 N3         N/A
* THOMP F APT  PTCLDY    27  22  81 S5         N/A   WCI  21
$$

MTZ008-052>055-172200-
SOUTHWEST MONTANA
CITY           SKY/WX    TMP DP  RH WIND       PRES   REMARKS
BOZEMAN        CLOUDY    34  27  76 CALM      29.91F
DILLON         SUNNY     32  23  69 S8        29.90F WCI  25
* W YELLOWSTON PTCLDY    29  23  78 SW3G9      N/A
* THREE FORKS  PTCLDY    34   5  29 N/A        N/A
* BOULDER HILL N/A       32  22  67 SW8        N/A   WCI  25
* MONIDA PASS  N/A       25  20  81 SE12       N/A   WCI  14
* RAYNOLDS PAS N/A       27  10  49 SE10       N/A   WCI  18
* WHITEHALL    N/A       38  31  76 SW2G10     N/A
* WISE RIVER   N/A       27  19  72 W3         N/A
$$

MTZ009>010-012-014-046-048-049-054-172200-
EAST SLOPES AND CENTRAL MONTANA
CITY           SKY/WX    TMP DP  RH WIND       PRES   REMARKS
CUT BANK       FOG       19  19 100 CALM      29.84F VSB M1/4
GREAT FALLS    SUNNY     39  30  70 SW10      29.84F WCI  32
HELENA         SUNNY     34  27  76 CALM      29.91F
* DEARBORN     N/A       38  28  67 SW9        N/A   WCI  32
* EAST GLACIER N/A       36  23  59 NW14G21    N/A   WCI  27
* MONARCH      N/A       34  16  48 SW11       N/A   WCI  26
* PENDROY      N/A       38  31  76 SE1        N/A
* ROGERS PASS  N/A       33  24  70 SE9G16     N/A   WCI  25
* SWEET GRASS  N/A       22  21  96 S14        N/A   WCI   9
$$

MTZ011-013-016-021-035-040-045-047-050-051-172200-
NORTH CENTRAL MONTANA
CITY           SKY/WX    TMP DP  RH WIND       PRES   REMARKS
HAVRE          CLOUDY    27  25  92 E5        29.92F WCI  21
LEWISTOWN      CLOUDY    37  30  76 SE5       29.86F WCI  33
* N BAR RANCH  SUNNY     36  30  79 NW3       29.87S
* CHESTER      N/A       30  26  85 S4         N/A
* DENTON       N/A       32  32 100 SE4        N/A
* GEYSER       N/A       35  32  89 NW2        N/A
* JUDITH GAP   N/A       32  32 100 E6         N/A   WCI  26
* LOMA         N/A       31  27  85 E7         N/A   WCI  24
$$

MTZ017>020-022>027-061-062-172200-
NORTHEAST MONTANA
CITY           SKY/WX    TMP DP  RH WIND       PRES   REMARKS
GLASGOW        CLOUDY    21  18  88 E14       29.99F WCI   8
GLENDIVE       CLOUDY    21  16  81 SE8       30.03F WCI  11
JORDAN         PTCLDY    27  21  78 SE8       29.95F WCI  19
SIDNEY         CLOUDY    21  16  81 SE12      30.09F WCI   9
WOLF POINT     CLOUDY    25  18  75 E8        30.05F WCI  16
* BEAVER HILL  N/A       19  17  92 SE9        N/A   WCI   8
* CIRCLE       N/A       25  21  85 SE2G8      N/A
* LINDSAY DVD  N/A       20  18  92 SE6        N/A   WCI  12
* NAVAJO       N/A       16  13  88 S12        N/A   WCI   3
* SACO         N/A       23  18  81 E9         N/A   WCI  13
$$

MTZ028>042-056>058-172200-
SOUTHCENTRAL AND SOUTHEAST MONTANA
CITY           SKY/WX    TMP DP  RH WIND       PRES   REMARKS
BAKER          CLOUDY    19  18  96 S15       30.00F WCI   5
BILLINGS       CLOUDY    32  25  75 SW15      29.90F WCI  22
LIVINGSTON     CLOUDY    39  27  62 W12       29.88F WCI  32
MILES CITY     CLOUDY    25  19  78 SE7       29.98S WCI  17
* LAUREL APT   CLOUDY    34  19  54 SW7        N/A   WCI  28
* ROUNDUP APT  PTSUNNY   32  27  82 N/A        N/A
* ALZADA       N/A       19  18  96 SE2        N/A
* HYSHAM       N/A       27  19  72 W6         N/A   WCI  20
* LAME DEER    N/A       27  26  96 N/A        N/A
* REED POINT   N/A       34  27  76 E3         N/A
* ROSCOE HILL  N/A       33  18  54 E8         N/A   WCI  26
$$

REGIONAL REPORTS...DAKOTAS
CITY           SKY/WX    TMP DP  RH WIND       PRES   REMARKS
WILLISTON      CLOUDY    21  12  68 SE10      30.10F WCI  10
DICKINSON      LGT SNOW  18  12  77 SE13      30.05F WCI   5
BEACH          FOG       18  18 100 SE14      30.03F WCI   4
CROSBY         CLOUDY    18  14  84 S12       30.12F WCI   5
WATFORD CITY   CLOUDY    18  14  84 SE12      30.08F WCI   5
BISMARCK       PTCLDY    19  10  68 SE12      30.20F WCI   6
GRAND FORKS    SUNNY     18  10  71 NE6       30.33F WCI  10
FARGO          SUNNY     19  10  68 NE6       30.31F WCI  11
BUFFALO SD     PTCLDY    19  16  88 SE12      29.94F WCI   6
RAPID CITY     CLOUDY    23  19  85 E6        29.97F WCI  16
$$

REGIONAL REPORTS...WYOMING/IDAHO/WASHINGTON
CITY           SKY/WX    TMP DP  RH WIND       PRES   REMARKS
GILLETTE       SUNNY     30  19  64 W9        29.91S WCI  22
SHERIDAN       PTCLDY    21  18  88 S6        29.92F WCI  13
CODY           PTSUNNY   25  23  92 NE3       29.88F
YELLOWSTONE LA PTCLDY    25  18  75 VRB3      29.92F
SALMON         PTCLDY    34  25  70 N6        29.97S WCI  29
MULLAN PASS    PTSUNNY   28  27  96 S6        29.83S WCI  21
SAND POINT     CLOUDY    36  30  79 NE6       29.94S WCI  31
SPOKANE        CLOUDY    37  32  82 NE6       29.89F WCI  32

$$




USA.gov is the U.S. government's official web portal to all federal, state and local government web resources and services.